This is the latest recevied weather packets stored in our database for station/object YD2CLX-11. If no packets are shown the sender has not sent any weather packets the latest 10 day(s).
| Time | Temp. | Humidity | Pressure | Rain* | Wind** | Luminosity | Snow |
|---|---|---|---|---|---|---|---|
| 1788578678 | 36.11° C | 43% | 1001 hPa | - | - | - | - |
| 1788578076 | 35° C | 44% | 1001.2 hPa | - | - | - | - |
| 1788577475 | 34.44° C | 46% | 1001.5 hPa | - | - | - | - |
| 1788576874 | 35° C | 45% | 1001.8 hPa | - | - | - | - |
| 1788576273 | 35° C | 45% | 1001.9 hPa | - | - | - | - |
| 1788575672 | 34.44° C | 46% | 1002 hPa | - | - | - | - |
| 1788575071 | 33.89° C | 47% | 1002.2 hPa | - | - | - | - |
| 1788574470 | 32.78° C | 50% | 1002.3 hPa | - | - | - | - |
| 1788573868 | 33.33° C | 51% | 1002.3 hPa | - | - | - | - |
| 1788573267 | 33.33° C | 50% | 1002.3 hPa | - | - | - | - |
| 1788572666 | 32.78° C | 52% | 1002.5 hPa | - | - | - | - |
| 1788572065 | 32.22° C | 54% | 1002.5 hPa | - | - | - | - |
| 1788571464 | 32.22° C | 54% | 1002.5 hPa | - | - | - | - |
| 1788570863 | 32.22° C | 55% | 1002.5 hPa | - | - | - | - |
| 1788570262 | 32.22° C | 55% | 1002.5 hPa | - | - | - | - |
| 1788569661 | 32.22° C | 54% | 1002.5 hPa | - | - | - | - |
| 1788569060 | 31.67° C | 55% | 1002.5 hPa | - | - | - | - |
| 1788568459 | 31.67° C | 58% | 1002.5 hPa | - | - | - | - |
| 1788567857 | 31.67° C | 57% | 1002.4 hPa | - | - | - | - |
| 1788567263 | 32.78° C | 57% | 1002.4 hPa | - | - | - | - |
| 1788566655 | 31.11° C | 62% | 1002.3 hPa | - | - | - | - |
| 1788566054 | 30.56° C | 66% | 1002.2 hPa | - | - | - | - |
| 1788565453 | 30° C | 69% | 1002.1 hPa | - | - | - | - |
| 1788564852 | 28.33° C | 73% | 1002.2 hPa | - | - | - | - |
| 1788564251 | 27.22° C | 74% | 1001.9 hPa | - | - | - | - |
* Rain since midnight (hover to see other rain measurements)
** Current wind speed in m/s (hover to see current wind gust speed)